Volver al catálogo

STARLINK-32245

ActivoComunicacionesVLEO
NORAD 62133·PAYLOAD·🇺🇸 United States

Lanzado Nov 27, 2024 desde Cape Canaveral Space Force Station

Loading…

Próximos Pases (próximas 24 horas)

TLE

ActualizadoSource: CelesTrak SupGP

Época: Sep 15, 2026, 03:12 UTC

1 62133C 24222V   26258.13381944  .00040809  00000+0  14781-2 0  2584
2 62133  43.0029 146.3644 0001349 271.1582   4.2116 15.27558936    12

Sigue STARLINK-32245 en tiempo real con AllMySat

Download on the App Store